Weather in Sretenskoye

Russia / Perm Krai     58°36′19″N   55°33′22″E
temp.,
°C
wind,
m/s
gust,
m/s
humid.,
%
clouds,
%
prec.,
mm/h
press.,
hPa
HPBL,
m
2 march, tue
tue223:00−15ssw4119473 0.0 1012314
02:00−14ssw6139191 0.0 1009426
05:00−13ssw6159396 0.1 1006460
08:00−14ssw61493100 0.8 1001536
11:00−13ssw71493100 1.9 1000536
14:00−11ssw61293100 0.9 997584
17:00−8ssw51193100 1.9 996593
20:00−8ssw41094100 1.1 995478
3 march, wed
wed323:00−8s3894100 1.7 994324
02:00−9s2496100 0.2 993126
05:00−10sw2297100 0.3 99428
08:00−10wsw2298100 0.0 99429
11:00−6w3595100 0.1 995260
14:00−3w249296 0.1 995506
17:00−2w249298 0.2 996430
20:00−5nw2796100 0.5 996293
4 march, thu
thu423:00−7nw3994100 0.8 998401
02:00−12w239698 0.0 99777
05:00−15wsw239776 0.0 99863
08:00−12wsw389689 0.1 999225
11:00−10sw369490 0.1 999331
14:00−7sw4790100 0.1 998655
17:00−6sw4886100 0.2 997837
20:00−7s41193100 0.1 996646
5 march, fri
fri523:00−7s51293100 0.5 993734
02:00−5s61394100 1.2 988863
05:00−2ssw51296100 3.5 984940
08:00−4wsw61386100 1.1 984998
11:00−6wsw7128799 1.3 9881179
14:00−7w71286100 0.2 9931023
17:00−8w61088100 0.3 998860
20:00−10w3993100 0.1 1002563
6 march, sat
sat623:00−14w3795100 0.1 1005182
02:00−18w239877 0.0 100872
05:00−19wsw229970 0.0 100921
08:00−21sw1210065 0.0 101020
11:00−15ssw129260 0.0 1009198
14:00−11e1186100 0.0 1007363
17:00−11ne2289100 0.0 1004352
20:00−15nne2295100 0.0 100227